Weather History for KICR - October, 2013

Change the Weather History Date:

Tuesday, October 29, 2013

  Actual Average Record
Temperature  
Mean Temperature 32 °F 45 °F  
Max Temperature 33 °F 56 °F 77 °F (2007)
Min Temperature 31 °F 34 °F 22 °F (2010)
Degree Days  
Heating Degree Days 33 20  
Month to date heating degree days 493 416  
Since 1 July heating degree days 548 558  
Cooling Degree Days 0 0  
Month to date cooling degree days 2 9  
Year to date cooling degree days 1014 915  
Moisture  
Dew Point 31 °F    
Average Humidity 95    
Maximum Humidity 100    
Minimum Humidity 89    
Precipitation  
Precipitation 0.03 in 0.03 in 0.03 in (2013)
Month to date precipitation 4.00 1.58  
Year to date precipitation 20.73 20.57  
Sea Level Pressure  
Sea Level Pressure 30.15 in    
Wind  
Wind Speed 8 mph (NNE)    
Max Wind Speed 18 mph    
Max Gust Speed 23 mph    
Visibility 3 miles    
Events Fog , Rain , Snow    
T = Trace of Precipitation, MM = Missing Value Source: NWS Daily Summary

Daily Weather History Graph

Daily Weather History Graph

Search for Another Location

Airport or City:

Trip Planner

Search our weather history database for the weather conditions in past years. The results will help you decide how hot, cold, wet, or windy it might be!

Date:

Astronomy

Oct. 29, 2013 Rise Set
Actual Time 8:11 AM CDT 6:34 PM CDT
Civil Twilight 7:41 AM CDT 7:03 PM CDT
Nautical Twilight 7:07 AM CDT 7:37 PM CDT
Astronomical Twilight 6:34 AM CDT 8:10 PM CDT
Moon 2:54 AM CDT (10/29) 3:56 PM CDT (10/29)
Length of Visible Light 11h 22m
Length of Day
10h 23m
Waning Crescent, 25% of the Moon is Illuminated
Oct 29
Waning Crescent
Nov 3
New
Nov 9
First Quarter
Nov 17
Full
Nov 25
Last Quarter

Hourly Weather History & Observations

Time (CDT) Temp. Windchill Dew Point Humidity Pressure Visibility Wind Dir Wind Speed Gust Speed Precip Events Conditions
12:53 AM 33.1 °F 26.9 °F 30.9 °F 92% 30.32 in 6.0 mi NE 6.9 mph - 0.00 in Rain Light Rain
1:12 AM 32.0 °F 24.2 °F 30.2 °F 93% 30.25 in 5.0 mi NE 9.2 mph - 0.00 in Rain Light Rain
1:25 AM 32.0 °F 23.6 °F 30.2 °F 93% 30.25 in 4.0 mi NE 10.4 mph - 0.00 in   Overcast
1:53 AM 32.0 °F 21.6 °F 30.9 °F 96% 30.30 in 4.0 mi NE 15.0 mph - 0.00 in   Overcast
2:13 AM 32.0 °F 21.6 °F 30.2 °F 93% 30.25 in 3.0 mi NE 15.0 mph - 0.00 in   Overcast
2:53 AM 32.0 °F 22.1 °F 30.0 °F 92% 30.29 in 5.0 mi ENE 13.8 mph 20.7 mph 0.00 in   Overcast
3:53 AM 30.9 °F 20.2 °F 30.0 °F 96% 30.27 in 4.0 mi ENE 15.0 mph - 0.00 in   Overcast
4:30 AM 30.2 °F 19.8 °F 30.2 °F 100% 30.20 in 2.5 mi ENE 13.8 mph - 0.00 in   Overcast
4:53 AM 30.9 °F 21.7 °F 30.0 °F 96% 30.25 in 3.0 mi ENE 11.5 mph - 0.00 in   Overcast
5:49 AM 32.0 °F 22.5 °F 30.2 °F 93% 30.18 in 2.5 mi ENE 12.7 mph - 0.00 in   Overcast
5:53 AM 32.0 °F 22.5 °F 30.0 °F 92% 30.23 in 3.0 mi ENE 12.7 mph - 0.00 in   Overcast
6:42 AM 32.0 °F 22.1 °F 30.2 °F 93% 30.17 in 8.0 mi ENE 13.8 mph - 0.01 in   Overcast
6:53 AM 32.0 °F 23.0 °F 30.0 °F 92% 30.23 in 6.0 mi East 11.5 mph - 0.01 in   Overcast
7:16 AM 32.0 °F 22.5 °F 30.2 °F 93% 30.17 in 2.0 mi East 12.7 mph - 0.00 in Snow Light Snow
7:32 AM 32.0 °F 24.2 °F 30.2 °F 93% 30.16 in 3.0 mi East 9.2 mph - 0.00 in   Overcast
7:44 AM 32.0 °F 23.6 °F 30.2 °F 93% 30.15 in 2.5 mi ENE 10.4 mph - 0.01 in   Overcast
7:53 AM 32.0 °F 24.2 °F 30.9 °F 96% 30.20 in 2.5 mi East 9.2 mph - 0.01 in   Overcast
8:01 AM 32.0 °F 24.2 °F 30.2 °F 93% 30.15 in 3.0 mi ENE 9.2 mph - 0.00 in   Overcast
8:32 AM 32.0 °F 26.4 °F 30.2 °F 93% 30.16 in 2.0 mi ENE 5.8 mph - 0.00 in   Overcast
8:53 AM 32.0 °F 25.6 °F 30.9 °F 96% 30.22 in 2.5 mi ENE 6.9 mph - 0.00 in   Overcast
9:00 AM 32.0 °F 25.6 °F 30.2 °F 93% 30.16 in 2.0 mi East 6.9 mph - 0.00 in   Overcast
9:08 AM 32.0 °F 26.4 °F 30.2 °F 93% 30.16 in 1.8 mi NE 5.8 mph - 0.00 in   Overcast
9:43 AM 32.0 °F 24.8 °F 30.2 °F 93% 30.14 in 1.8 mi ENE 8.1 mph - 0.00 in   Overcast
9:53 AM 32.0 °F 24.8 °F 30.9 °F 96% 30.20 in 2.0 mi ENE 8.1 mph - 0.00 in   Overcast
10:00 AM 32.0 °F 26.4 °F 30.2 °F 93% 30.14 in 2.5 mi ENE 5.8 mph - 0.00 in   Overcast
10:08 AM 32.0 °F 26.4 °F 30.2 °F 93% 30.14 in 3.0 mi ENE 5.8 mph - 0.00 in   Overcast
10:53 AM 32.0 °F 25.6 °F 30.9 °F 96% 30.21 in 2.5 mi North 6.9 mph - 0.00 in   Overcast
11:04 AM 32.0 °F 26.4 °F 30.2 °F 93% 30.15 in 2.0 mi NNE 5.8 mph - 0.00 in   Overcast
11:15 AM 32.0 °F 25.6 °F 30.2 °F 93% 30.14 in 3.0 mi NNE 6.9 mph - 0.00 in   Overcast
11:40 AM 32.0 °F 27.5 °F 30.2 °F 93% 30.14 in 4.0 mi NNE 4.6 mph - 0.01 in   Overcast
11:48 AM 32.0 °F 26.4 °F 30.2 °F 93% 30.14 in 6.0 mi North 5.8 mph - 0.01 in   Overcast
11:53 AM 32.0 °F 28.7 °F 30.9 °F 96% 30.21 in 7.0 mi North 3.5 mph - 0.01 in   Overcast
12:36 PM 32.0 °F 26.4 °F 30.2 °F 93% 30.14 in 10.0 mi North 5.8 mph - 0.00 in   Overcast
12:53 PM 33.1 °F 26.9 °F 30.9 °F 92% 30.19 in 8.0 mi NNE 6.9 mph - 0.00 in Rain Light Rain
1:14 PM 32.0 °F 25.6 °F 30.2 °F 93% 30.12 in 6.0 mi North 6.9 mph - 0.00 in   Overcast
1:53 PM 32.0 °F 25.6 °F 30.9 °F 96% 30.15 in 9.0 mi North 6.9 mph - 0.00 in   Overcast
2:53 PM 33.1 °F 26.9 °F 32.0 °F 96% 30.12 in 5.0 mi North 6.9 mph - 0.00 in   Overcast
3:39 PM 33.8 °F 27.0 °F 32.0 °F 93% 30.05 in 2.0 mi North 8.1 mph - N/A   Overcast
3:53 PM 33.1 °F 26.9 °F 32.0 °F 96% 30.11 in 2.0 mi North 6.9 mph - N/A   Overcast
4:12 PM 33.8 °F 27.7 °F 32.0 °F 93% 30.05 in 1.5 mi North 6.9 mph - N/A   Overcast
4:25 PM 33.8 °F 27.7 °F 32.0 °F 93% 30.04 in 0.5 mi NNE 6.9 mph - 0.00 in Fog , Rain Light Rain
4:53 PM 33.1 °F 25.5 °F 32.0 °F 96% 30.10 in 0.5 mi NNE 9.2 mph - 0.00 in Fog , Rain Light Rain
5:53 PM 33.1 °F 27.7 °F 32.0 °F 96% 30.12 in 0.8 mi North 5.8 mph - 0.00 in   Overcast
6:15 PM 32.0 °F 24.8 °F 32.0 °F 100% 30.06 in 1.0 mi North 8.1 mph - 0.00 in   Overcast
6:34 PM 32.0 °F 24.8 °F 32.0 °F 100% 30.06 in 2.0 mi NNW 8.1 mph - 0.00 in   Overcast
6:46 PM 32.0 °F 25.6 °F 32.0 °F 100% 30.06 in 2.5 mi NNW 6.9 mph - 0.00 in   Overcast
6:53 PM 32.0 °F 25.6 °F 32.0 °F 100% 30.13 in 2.5 mi NNW 6.9 mph - 0.00 in   Overcast
7:14 PM 32.0 °F 25.6 °F 32.0 °F 100% 30.06 in 3.0 mi North 6.9 mph - 0.00 in   Overcast
7:53 PM 32.0 °F 25.6 °F 30.9 °F 96% 30.13 in 5.0 mi North 6.9 mph - 0.00 in   Overcast
8:53 PM 32.0 °F 24.8 °F 30.9 °F 96% 30.14 in 6.0 mi North 8.1 mph - 0.00 in   Overcast
9:25 PM 32.0 °F 25.6 °F 30.2 °F 93% 30.07 in 2.5 mi North 6.9 mph - N/A   Overcast
9:33 PM 32.0 °F 25.6 °F 30.2 °F 93% 30.07 in 1.8 mi NNW 6.9 mph - N/A   Overcast
9:53 PM 32.0 °F 24.8 °F 30.9 °F 96% 30.14 in 0.8 mi NW 8.1 mph - 0.00 in   Mist
10:34 PM 32.0 °F 27.5 °F 32.0 °F 100% 30.07 in 1.2 mi North 4.6 mph - N/A   Overcast
10:53 PM 32.0 °F 27.5 °F 30.9 °F 96% 30.14 in 1.0 mi North 4.6 mph - N/A   Overcast
11:26 PM 32.0 °F 26.4 °F 30.2 °F 93% 30.07 in 2.5 mi NW 5.8 mph - N/A   Overcast
11:36 PM 32.0 °F 27.5 °F 30.2 °F 93% 30.07 in 2.0 mi WNW 4.6 mph - N/A   Overcast
11:41 PM 32.0 °F 26.4 °F 30.2 °F 93% 30.07 in 3.0 mi WNW 5.8 mph - N/A   Overcast
11:53 PM 32.0 °F 28.7 °F 30.9 °F 96% 30.13 in 7.0 mi WNW 3.5 mph - N/A   Overcast